AirNav   Air Wisconsin pilot careers
 
 1011 users online  

67KY Estes Airport
Florence, Kentucky, USA

GOING TO FLORENCE?


FAA INFORMATION EFFECTIVE 08 NOVEMBER 2018

Location

FAA Identifier: 67KY
Lat/Long: 38-59-00.2190N / 084-39-58.0000W
38-59.003650N / 084-39.966667W
38.9833942 / -84.6661111
(estimated)
Elevation: 890 ft. / 271 m (estimated)
Variation: 03W (1985)
From city: 2 miles SW of FLORENCE, KY
Time zone: UTC -5 (UTC -4 during Daylight Saving Time)
Zip code: 41042

Airport Operations

Airport use: Private use. Permission required prior to landing
Activation date: 08/1985
Control tower: no
ARTCC: INDIANAPOLIS CENTER
FSS: LOUISVILLE FLIGHT SERVICE STATION
Attendance: IREG
Wind indicator: yes
Segmented circle: no

Airport Communications

WX ASOS at CVG (4 nm N): PHONE 859-767-8210
WX ASOS at LUK (14 nm NE): PHONE 513-321-6291
WX AWOS-3PT at I67 (17 nm N): 118.15 (513-569-4964)

Nearby radio navigation aids

VOR radial/distance  VOR name  Freq  Var
CVGr142/2.6CINCINNATI VORTAC117.3004W
FLMr324/26.0FALMOUTH VOR/DME117.0004W

 
NDB name  Hdg/Dist  Freq  Var  ID
CINCINNATI239/18.533504WLUK .-.. ..- -.-
MADEIRA229/20.437904WMDE -- -.. .
SPORTYS259/21.724504WPWF .--. .-- ..-.
HOOK FIELD202/32.523904WHKF .... -.- ..-.
BATESVILLE133/35.125405WHLB .... .-.. -...

Airport Services

Runway Information

Runway 4/22

Dimensions: 1500 x 100 ft. / 457 x 30 m
Surface: turf
RUNWAY 4  RUNWAY 22
Traffic pattern: leftleft

Airport Ownership and Management from official FAA records

Ownership: Privately-owned
Owner: KENNETH RAY ESTES
7443 HOPEFUL CHURCH ROAD
FLORENCE, KY 41042
Phone 859-525-1675
Manager: KENNETH RAY ESTES
7443 HOPEFUL CHURCH ROAD
FLORENCE, KY 41042
Phone 859-525-1675

Airport Operational Statistics

Aircraft based on the field: 2
Single engine airplanes: 2
    

Instrument Procedures

There are no published instrument procedures at 67KY.

Some nearby airports with instrument procedures:

KCVG - Cincinnati/Northern Kentucky International Airport (4 nm N)
KLUK - Cincinnati Municipal Airport-Lunken Field (14 nm NE)
I67 - Cincinnati West Airport (17 nm N)
K62 - Gene Snyder Airport (21 nm SE)
I69 - Clermont County Airport (22 nm E)
 
Loc | Ops | Rwys | IFR | FBO | Links
Com | Nav | Svcs | Stats | Notes


 
Area around 67KY (Estes Airport)
 
Road maps at: MapQuest Bing Google
 
Aerial photo
No photo
 
Sectional chart

 
Airport distance calculator
Flying to Estes Airport? Find the distance to fly.

From to 67KY

Sunrise and sunset
Times for 20-Nov-2018
 Local
(UTC-5)
 Zulu
(UTC)
Morning civil twilight06:5911:59
Sunrise07:2812:28
Sunset17:2122:21
Evening civil twilight17:4922:49

Current date and time
Zulu (UTC)  20-Nov-2018 23:39:41
Local (UTC-5)  20-Nov-2018 18:39:41
 
METAR
KCVG 
4nm N 
202252Z 28005KT 10SM OVC031 02/M02 A3023 RMK AO2 SLP239 T00221022
KLUK 
14nm NE 
202253Z 30006KT 10SM OVC038 03/M03 A3026 RMK AO2 SLP249 T00331033
KI67 
17nm N 
202315Z AUTO 00000KT 10SM OVC037 02/M02 A3025 RMK AO1
TAF
KCVG 
4nm N 
202105Z 2021/2124 30008KT P6SM OVC035 FM210400 25005KT P6SM SCT035 FM211000 28007KT P6SM SCT090 FM211400 26009KT P6SM BKN040
KLUK 
14nm NE 
202105Z 2021/2118 30007KT P6SM OVC040 FM210400 26004KT P6SM SCT040 FM210900 24005KT P6SM FEW080 FM211100 24006KT P6SM FEW027 BKN090
NOTAMs
Click for the latest NOTAMs
NOTAMs are issued by the DoD/FAA and will open in a separate window not controlled by AirNav.

 

 
 

Would you like to see your business listed on this page?

 If your business provides an interesting product or service to pilots, flight crews, aircraft, or users of the Estes Airport, you should consider listing it here.  To start the listing process, click on the button below
 
Add a business
 

Other Pages about Estes Airport

Update a link
 
Copyright © AirNav, LLC. All rights reserved. Privacy Policy  Contact